This is the latest recevied weather packets stored in our database for station/object W2TAO. If no packets are shown the sender has not sent any weather packets the latest 10 day(s).
| Time | Temp. | Humidity | Pressure | Rain* | Wind** | Luminosity | Snow |
|---|---|---|---|---|---|---|---|
| 1777841291 | 13.33° C | 33% | 1011.2 hPa | 0 mm | - | 504 W/m² | - |
| 1777840989 | 13.89° C | 36% | 1011.2 hPa | 0 mm | - | 541 W/m² | - |
| 1777840686 | 13.89° C | 34% | 1011.2 hPa | 0 mm | - | 128 W/m² | - |
| 1777840383 | 13.89° C | 36% | 1011.2 hPa | 0 mm | - | 568 W/m² | - |
| 1777840080 | 13.89° C | 35% | 1011.4 hPa | 0 mm | - | 587 W/m² | - |
| 1777839778 | 12.78° C | 32% | 1011.4 hPa | 0 mm | - | 584 W/m² | - |
| 1777839475 | 13.33° C | 35% | 1011.3 hPa | 0 mm | - | 583 W/m² | - |
| 1777839173 | 13.33° C | 33% | 1011.3 hPa | 0 mm | - | 583 W/m² | - |
| 1777838870 | 13.33° C | 36% | 1011.5 hPa | 0 mm | - | 620 W/m² | - |
| 1777838565 | 11.67° C | 33% | 1011.5 hPa | 0 mm | - | 635 W/m² | - |
| 1777838263 | 12.22° C | 37% | 1011.5 hPa | 0 mm | - | 122 W/m² | - |
| 1777837959 | 12.22° C | 33% | 1011.7 hPa | 0 mm | - | 129 W/m² | - |
| 1777837657 | 11.67° C | 34% | 1011.9 hPa | 0 mm | - | 686 W/m² | - |
| 1777837353 | 12.22° C | 36% | 1011.6 hPa | 0 mm | - | 167 W/m² | - |
| 1777837049 | 12.22° C | 33% | 1011.7 hPa | 0 mm | - | 161 W/m² | - |
| 1777836745 | 12.78° C | 35% | 1011.7 hPa | 0 mm | - | 126 W/m² | - |
| 1777836441 | 12.22° C | 33% | 1011.8 hPa | 0 mm | - | 755 W/m² | - |
| 1777836136 | 12.22° C | 36% | 1011.7 hPa | 0 mm | - | 779 W/m² | - |
| 1777835833 | 12.22° C | 33% | 1011.8 hPa | 0 mm | - | 797 W/m² | - |
| 1777835531 | 12.78° C | 35% | 1012.1 hPa | 0 mm | - | 740 W/m² | - |
| 1777835227 | 12.22° C | 35% | 1012 hPa | 0 mm | - | 732 W/m² | - |
| 1777834924 | 12.78° C | 34% | 1012 hPa | 0 mm | - | 749 W/m² | - |
| 1777834621 | 12.22° C | 38% | 1011.9 hPa | 0 mm | - | 825 W/m² | - |
| 1777834316 | 11.67° C | 35% | 1011.9 hPa | 0 mm | - | 380 W/m² | - |
| 1777834011 | 12.22° C | 36% | 1012 hPa | 0 mm | - | 155 W/m² | - |
* Rain latest hour (hover to see other rain measurements)
** Current wind speed in m/s (hover to see current wind gust speed)